This is the latest recevied weather packets stored in our database for station/object VK4HIT-13. If no packets are shown the sender has not sent any weather packets the latest 10 day(s).
| Time | Temp. | Humidity | Pressure | Rain* | Wind** | Luminosity | Snow |
|---|---|---|---|---|---|---|---|
| 1778213365 | 22.78° C | 24% | 1017.5 hPa | 0 mm | - | - | - |
| 1778213065 | 22.78° C | 25% | 1017.6 hPa | 0 mm | - | - | - |
| 1778212765 | 22.78° C | 24% | 1017.6 hPa | 0 mm | - | - | - |
| 1778212465 | 22.22° C | 26% | 1017.6 hPa | 0 mm | - | - | - |
| 1778212165 | 22.22° C | 24% | 1017.7 hPa | 0 mm | - | - | - |
| 1778211865 | 21.67° C | 25% | 1017.7 hPa | 0 mm | - | - | - |
| 1778211565 | 21.67° C | 24% | 1017.7 hPa | 0 mm | - | - | - |
| 1778211265 | 21.67° C | 25% | 1017.8 hPa | 0 mm | - | - | - |
| 1778210965 | 21.67° C | 27% | 1018 hPa | 0 mm | - | - | - |
| 1778210665 | 21.11° C | 25% | 1018 hPa | 0 mm | - | - | - |
| 1778210365 | 21.11° C | 24% | 1018.1 hPa | 0 mm | - | - | - |
| 1778210065 | 21.11° C | 27% | 1018.2 hPa | 0 mm | - | - | - |
| 1778209765 | 20.56° C | 25% | 1018.3 hPa | 0 mm | - | - | - |
| 1778209465 | 21.11° C | 25% | 1018.3 hPa | 0 mm | - | - | - |
| 1778209165 | 20.56° C | 25% | 1018.2 hPa | 0 mm | - | - | - |
| 1778208865 | 20.56° C | 25% | 1018.3 hPa | 0 mm | - | - | - |
| 1778208565 | 20.56° C | 25% | 1018.5 hPa | 0 mm | - | - | - |
| 1778208265 | 20.56° C | 26% | 1018.6 hPa | 0 mm | - | - | - |
| 1778207965 | 20.56° C | 26% | 1018.6 hPa | 0 mm | - | - | - |
| 1778207665 | 20° C | 26% | 1018.7 hPa | 0 mm | - | - | - |
| 1778207365 | 20° C | 27% | 1018.7 hPa | 0 mm | - | - | - |
| 1778207065 | 20° C | 26% | 1018.8 hPa | 0 mm | - | - | - |
| 1778206765 | 20° C | 26% | 1019 hPa | 0 mm | - | - | - |
| 1778206465 | 20° C | 25% | 1019 hPa | 0 mm | - | - | - |
| 1778206165 | 20° C | 27% | 1019.1 hPa | 0 mm | - | - | - |
* Rain latest hour (hover to see other rain measurements)
** Current wind speed in m/s (hover to see current wind gust speed)